SCP
0 0 0 0 0 0 0 0 0 0 0 0 0 0 0 0 0 0 0 0 0 0 0 0 0 0 0 0 0 0 0 0 0 0 0 0 0 0 0 0 0 0 0 0 0 0 0 0 0
0 0 0 0 0 0 0 0 0 0 0 0 0 0 0 0 0 0 0 0 0 0 0 0 0 0 0 0 0 0 0 0 0 0 0 0 0 0 0 0 0 0 0 0 0 0 0 0 0
0 0 0 0 0 0 0 0 0 0 0 0 0 0 0 0 0 0 0 0 0 0 0 0 0 0 0 0 0 0 0 0 0 0 0 0 0 0 0 0 0 0 0 0 0 0 0 0 0
0 0 0 0 0 0 0 0 0 0 0 0 0 0 0 0 0 0 0 0 0 0 0 0 0 0 0 0 0 0 0 0 0 0 0 0 0 0 0 0 0 0 0 0 0 0 0 0 0
0 0 0 0 0 0 0 0 0 0 0 0 0 0 0 0 0 0 0 0 0 0 0 0 0 0 0 0 0 0 0 0 0 0 0 0 0 0 0 0 0 0 0 0 0 0 0 0 0
0 0 0 0 0 0 0 0 0 0 0 0 0 0 0 0 0 0 0 0 0 0 0 0 0 0 0 0 0 0 0 0 0 0 0 0 0 0 0 0 0 0 0 0 0 0 0 0 0
0 0 0 0 0 0 0 0 0 0 0 0 0 0 0 0 0 0 0 0 0 0 0 0 0 0 0 0 0 0 0 0 0 0 0 0 0 0 0 0 0 0 0 0 0 0 0 0 0
0 0 0 0 0 0 0 0 0 0 0 0 0 0 0 0 0 0 0 0 0 0 0 0 0 0 0 0 0 0 0 0 0 0 0 0 0 0 0 0 0 0 0 0 0 0 0 0 0
0 0 0 0 0 0 0 0 0 0 0 0 0 0 0 0 0 0 0 0 0 0 0 0 0 0 0 0 0 0 0 0 0 0 0 0 0 0 0 0 0 0 0 0 0 0 0 0 0
0 0 0 0 0 0 0 0 0 0 0 0 0 0 0 0 0 0 0 0 0 0 0 0 0 0 0 0 0 0 0 0 0 0 0 0 0 0 0 0 0 0 0 0 0 0 0 0 0
0 0 0 0 0 0 0 0 0 0 0 0 0 0 0 0 0 0 0 0 0 0 0 0 0 0 0 0 0 0 0 0 0 0 0 0 0 0 0 0 0 0 0 0 0 0 0 0 0
0 0 0 0 0 0 0 0 0 0 0 0 0 0 0 0 0 0 0 0 0 0 0 0 0 0 0 0 0 0 0 0 0 0 0 0 0 0 0 0 0 0 0 0 0 0 0 0 0
0 0 0 0 0 0 0 0 0 0 0 0 0 0 0 0 0 0 0 0 0 0 0 0 0 0 0 0 0 0 0 0 0 0 0 0 0 0 0 0 0 0 0 0 0 0 0 0 0
0 0 0 0 0 0 0 0 0 0 0 0 0 0 0 0 0 0 0 0 0 0 0 0 0 0 0 0 0 0 0 0 0 0 0 0 0 0 0 0 0 0 0 0 0 0 0 0 0
0 0 0 0 0 0 0 0 0 0 0 0 0 0 0 0 0 0 0 0 0 0 0 0 0 0 0 0 0 0 0 0 0 0 0 0 0 0 0 0 0 0 0 0 0 0 0 0 0
0 0 0 0 0 0 0 0 0 0 0 0 0 0 0 0 0 0 0 0 0 0 0 0 0 0 0 0 0 0 0 0 0 0 0 0 0 0 0 0 0 0 0 0 0 0 0 0 0
0 0 0 0 0 0 0 0 0 0 0 0 0 0 0 0 0 0 0 0 0 0 0 0 0 0 0 0 0 0 0 0 0 0 0 0 0 0 0 0 0 0 0 0 0 0 0 0 0
0 0 0 0 0 0 0 0 0 0 0 0 0 0 0 0 0 0 0 0 0 0 0 0 0 0 0 0 0 0 0 0 0 0 0 0 0 0 0 0 0 0 0 0 0 0 0 0 0
0 0 0 0 0 0 0 0 0 0 0 0 0 0 0 0 0 0 0 0 0 0 0 0 0 0 0 0 0 0 0 0 0 0 0 0 0 0 0 0 0 0 0 0 0 0 0 0 0
0 0 0 0 0 0 0 0 0 0 0 0 0 0 0 0 0 0 0 0 0 0 0 0 0 0 0 0 0 0 0 0 0 0 0 0 0 0 0 0 0 0 0 0 0 0 0 0 0
0 0 0 0 0 0 0 0 0 0 0 0 0 0 0 0 0 0 0 0 0 0 0 0 0 0 0 0 0 0 0 0 0 0 0 0 0 0 0 0 0 0 0 0 0 0 0 0 0
0 0 0 0 0 0 0 0 0 0 0 0 0 0 0 0 0 0 0 0 0 0 0 0 0 0 0 0 0 0 0 0 0 0 0 0 0 0 0 0 0 0 0 0 0 0 0 0 0
0 0 0 0 0 0 0 0 0 0 0 0 0 0 0 0 0 0 -0 -0 0 0 0 0 0 0 0 0 0 0 0 0 0 0 0 0 0 0 0 0 0 0 0 0 0 0 0 0 0
0 0 0 0 0 0 0 0 0 0 0 0 0 0 0 0 0 0 -0 -0 -0 0 0 0 0 0 0 0 0 0 0 0 0 0 0 0 0 0 0 0 0 0 0 0 0 0 0 0 0
0 0 0 0 0 0 0 0 0 0 0 0 0 0 0 0 0 0 -0 -0 -0 0 0 0 0 0 0 0 0 0 0 0 0 0 0 0 0 0 0 0 0 0 0 0 0 0 0 0 0
0 0 0 0 0 0 0 0 0 0 0 0 0 0 0 0 0 0 0 -0 -0 0 0 0 0 0 0 0 0 0 0 0 0 0 0 0 0 0 0 0 0 0 0 0 0 0 0 0 0
0 0 0 0 0 0 0 0 0 0 0 0 0 0 0 0 0 0 0 0 0 0 0 0 0 0 0 0 0 0 0 0 0 0 0 0 0 0 0 0 0 0 0 0 0 0 0 0 0
0 0 0 0 0 0 0 0 0 0 0 0 0 0 0 0 0 0 0 0 0 0 0 0 0 0 0 0 0 0 0 0 0 0 0 0 0 0 0 0 0 0 0 0 0 0 0 0 0
0 0 0 0 0 0 0 0 0 0 0 0 0 0 0 0 0 0 0 0 0 0 0 0 0 0 0 0 0 0 0 0 0 0 0 0 0 0 0 0 0 0 0 0 0 0 0 0 0
0 0 0 0 0 0 0 0 0 0 0 0 0 0 0 0 0 0 0 0 0 0 0 0 0 0 0 0 0 0 0 0 0 0 0 0 0 0 0 0 0 0 0 0 0 0 0 0 0
Wind_Speed
8 4 3 3 3 2 2 2 2 4 3 3 3 3 4 4 4 5 4 3 2 3 3 3 4 6 7 8 8 9 9 10 10 10 10 10 10 9 9 9 9 9 9 9 9 9 9 9 9
6 3 2 2 4 5 3 2 3 2 3 4 4 4 4 5 5 4 3 2 2 3 3 4 5 6 7 8 8 9 9 9 9 10 10 9 9 9 8 8 8 9 9 8 8 8 8 8 8
3 2 1 1 2 3 4 3 4 4 4 2 3 4 4 4 4 3 3 1 3 4 4 5 7 8 8 8 9 9 9 9 10 10 10 9 9 8 8 8 8 8 8 8 8 8 8 7 7
2 1 1 1 3 1 1 4 4 5 3 3 3 5 5 5 4 3 2 2 4 4 4 6 8 8 9 8 8 9 9 10 10 10 10 9 8 8 8 8 8 8 8 7 8 8 8 7 7
1 1 2 3 3 2 3 3 3 3 3 3 3 4 4 4 5 4 3 3 4 5 4 5 7 8 8 9 8 8 9 9 10 10 10 10 10 9 9 9 8 8 7 7 7 8 7 7 7
2 2 4 5 5 3 3 2 3 4 3 3 3 3 4 4 5 4 3 4 4 5 4 5 8 8 8 8 8 8 8 9 9 9 9 10 10 10 9 8 8 8 8 7 7 7 7 7 7
1 2 3 5 5 4 2 1 2 3 3 3 2 2 3 3 4 3 3 4 5 5 4 4 4 5 7 8 8 8 8 8 8 9 9 9 9 10 9 9 8 8 8 8 7 7 7 7 7
1 3 4 5 6 4 2 2 2 2 3 3 2 1 2 2 2 3 4 4 4 4 4 3 3 3 3 4 7 7 8 8 8 8 8 7 7 8 9 8 8 8 7 7 7 7 7 7 7
1 3 4 5 5 4 3 2 2 2 3 3 3 3 3 2 2 3 3 4 4 4 3 3 3 2 2 3 4 5 5 6 6 6 6 4 3 4 4 7 8 8 8 7 6 6 6 5 5
1 3 3 2 2 4 4 2 2 2 2 1 2 4 4 3 3 3 3 3 2 2 2 2 2 2 2 2 2 2 2 2 3 3 3 2 2 3 3 5 6 7 6 6 6 6 4 2 2
3 3 5 3 4 5 5 3 2 3 1 1 1 1 2 2 3 2 2 2 1 1 2 2 2 2 1 1 1 1 1 1 2 2 2 2 2 2 2 1 2 3 3 3 3 2 2 3 3
6 5 4 4 4 3 3 3 2 1 2 3 2 2 2 2 2 2 1 1 1 1 1 1 1 1 1 1 1 1 1 1 1 1 2 1 1 1 1 1 2 2 2 2 2 2 3 3 3
6 5 6 6 7 5 5 3 2 1 2 3 3 3 3 2 1 1 2 0 0 1 1 1 1 1 1 1 1 1 1 1 1 1 1 1 1 1 1 1 2 2 2 2 2 2 2 2 3
7 8 6 5 5 3 4 2 2 1 2 3 3 2 2 2 2 2 2 2 1 1 1 1 1 1 1 1 1 1 1 1 1 1 2 2 1 1 1 1 2 2 2 2 2 2 2 2 2
7 7 6 5 3 2 2 2 1 1 2 2 2 2 2 2 2 2 3 3 2 1 1 1 1 1 1 0 1 1 1 1 1 1 1 1 1 1 1 1 1 1 2 2 1 2 1 1 2
4 4 3 3 3 1 1 1 1 2 2 1 1 1 1 1 2 2 2 3 2 1 1 1 1 1 0 0 0 1 1 1 1 1 1 1 1 1 1 1 1 2 1 1 1 1 1 1 1
3 3 3 2 4 2 0 1 0 0 1 1 1 1 0 1 2 2 2 2 2 1 1 1 1 0 0 0 1 1 1 1 1 1 1 2 2 1 1 1 1 1 1 1 1 1 1 1 1
4 4 2 1 3 2 0 2 2 2 2 2 2 1 1 1 2 2 2 2 2 1 1 1 0 1 1 0 0 0 1 1 1 1 1 2 1 2 1 1 2 1 1 1 1 1 1 1 1
5 5 3 1 3 2 1 4 4 3 3 3 2 2 2 2 2 1 1 1 1 1 1 1 1 1 1 1 1 0 0 0 1 1 1 2 2 1 1 1 2 1 1 1 1 1 1 1 1
5 5 3 2 3 2 2 5 4 3 3 3 3 3 3 3 2 1 2 1 1 1 1 1 1 1 1 1 1 1 1 0 0 1 1 2 2 2 1 1 1 1 1 1 1 1 1 1 1
4 3 2 0 2 1 3 3 2 1 2 2 3 3 3 3 3 3 2 2 1 1 1 1 1 1 1 1 0 0 1 1 1 1 1 1 2 1 1 1 1 1 1 1 1 1 2 1 1
2 2 2 1 0 1 3 3 2 2 3 3 4 4 4 4 3 3 3 3 3 2 2 1 1 1 1 1 1 2 1 2 1 1 1 1 1 2 2 2 1 1 1 1 2 2 2 2 2
2 2 2 2 1 0 0 3 2 0 3 4 4 5 5 4 4 3 3 3 3 3 2 1 1 1 1 1 2 2 2 2 1 1 1 1 1 1 1 2 2 1 1 1 1 1 2 2 2
2 3 3 2 1 1 1 3 4 2 4 4 4 4 4 3 3 3 3 2 2 2 2 2 2 2 2 2 2 3 3 3 2 2 1 1 1 1 1 1 1 1 1 1 1 1 1 1 2
1 1 1 1 0 2 1 4 6 3 4 5 5 5 4 3 3 3 3 3 3 2 2 2 2 2 2 2 3 3 4 4 4 3 2 2 1 1 1 1 1 1 1 1 1 1 1 1 2
1 1 0 1 2 1 2 6 4 2 3 4 5 5 4 4 3 3 4 4 3 3 3 3 3 3 3 3 3 3 3 3 2 3 2 2 1 1 1 1 1 1 1 1 1 1 1 1 2
2 2 2 3 2 2 4 5 6 3 4 3 3 3 4 4 4 4 4 4 4 4 4 4 4 4 3 3 3 3 3 2 2 2 2 2 1 1 1 1 1 1 1 1 1 1 1 1 2
2 3 2 2 1 3 4 5 4 4 4 3 3 4 4 3 4 4 4 4 4 4 4 4 4 4 4 3 3 2 3 3 3 2 2 2 1 1 1 1 1 1 1 1 1 1 1 1 2
3 3 2 2 1 2 4 4 3 4 3 4 4 4 4 4 4 4 4 4 4 4 4 4 4 4 4 3 3 3 3 3 3 2 2 2 2 1 2 1 1 1 1 1 1 1 2 2 2
2 3 4 3 3 3 4 6 1 4 4 4 5 4 4 4 5 4 4 4 4 4 4 4 4 4 4 3 3 3 3 3 3 3 3 3 3 2 2 2 1 1 1 1 2 2 2 2 3
Wind_Direction
327 321 267 237 214 181 166 130 123 121 97 64 68 80 81 55 33 75 55 80 89 111 110 103 68 88 92 89 86 86 89 89 92 93 90 86 83 82 81 79 77 75 73 72 71 68 67 65 62
329 312 247 245 232 198 168 158 147 99 98 104 85 80 84 74 45 58 44 44 88 109 104 93 68 81 89 87 84 84 86 87 88 89 88 84 82 80 79 78 73 71 68 68 68 66 62 59 58
305 306 304 207 222 222 154 125 115 95 93 95 91 61 53 56 46 39 26 74 103 104 96 77 61 71 81 84 81 79 81 83 83 81 80 80 78 74 73 73 70 66 64 64 64 61 58 55 51
268 159 132 200 161 50 97 118 124 133 97 57 96 98 86 48 18 23 61 100 99 97 93 81 60 67 71 77 79 78 78 80 80 78 73 70 71 70 68 68 67 62 59 59 58 57 55 51 49
246 193 174 174 167 119 86 89 142 131 108 77 93 97 95 52 35 59 88 104 100 93 82 85 65 65 68 70 73 77 77 77 76 75 71 66 65 64 63 63 62 58 55 55 56 56 52 48 48
156 199 200 189 165 140 109 69 130 104 96 82 77 98 89 59 45 59 88 101 97 93 84 81 60 55 59 63 67 68 73 73 74 72 70 67 64 59 56 56 56 54 52 53 53 51 49 46 47
172 175 187 170 162 165 122 57 110 117 105 69 32 98 105 64 45 70 93 93 92 88 85 82 85 74 62 57 57 60 64 68 70 70 67 61 58 53 47 46 48 49 49 50 48 46 46 47 48
50 144 150 167 172 166 117 83 66 75 84 51 14 90 115 29 54 98 101 91 84 81 78 80 84 83 89 82 62 57 59 62 66 64 61 60 59 54 45 42 42 43 46 47 46 44 46 50 50
226 160 167 174 180 155 139 131 58 46 102 70 30 21 49 75 116 120 111 98 84 70 67 68 74 81 83 88 75 69 64 61 66 65 58 60 62 61 55 42 37 41 42 44 46 46 46 48 59
68 153 152 134 157 144 142 135 130 152 124 68 54 47 63 86 103 123 118 105 87 63 52 55 65 68 80 80 90 84 74 77 76 73 68 59 52 45 41 51 39 37 36 41 43 41 40 15 49
73 121 128 104 106 126 131 116 108 164 145 58 82 91 99 109 97 88 112 103 86 62 48 38 40 47 61 82 89 75 68 68 73 69 65 64 57 50 35 37 46 37 30 33 40 27 23 26 23
103 87 103 108 96 111 127 124 104 57 43 50 77 112 116 110 93 68 78 95 76 58 32 32 37 42 48 54 75 79 70 58 64 63 51 52 51 34 25 17 15 14 6 8 9 10 22 30 32
105 110 83 85 88 88 97 105 91 39 43 77 96 108 108 85 55 49 13 14 78 11 353 2 17 28 53 57 71 85 66 55 52 43 37 25 32 30 26 20 8 1 359 354 354 8 15 28 34
115 109 96 74 79 83 90 72 76 37 85 102 112 104 81 50 22 17 11 338 325 322 326 350 16 15 61 72 78 89 82 62 47 44 33 23 14 22 15 17 7 358 349 342 342 359 9 26 34
122 109 94 63 52 83 106 62 53 69 114 120 130 111 70 33 21 17 4 341 316 304 312 342 16 26 37 86 102 71 75 71 48 43 35 28 11 1 356 355 355 342 340 340 348 1 5 23 31
136 133 119 64 35 14 240 193 63 91 143 159 143 123 82 11 354 0 356 334 311 306 329 354 29 33 37 53 94 73 68 73 52 28 31 23 8 348 327 339 331 332 337 344 352 352 2 7 11
121 139 121 88 39 22 226 242 36 41 223 233 220 165 219 338 343 350 350 330 309 331 344 15 34 354 321 15 82 78 66 68 60 40 33 16 10 358 337 325 319 324 330 335 340 341 332 346 8
148 141 128 114 25 21 37 277 300 278 256 259 251 233 263 301 326 345 343 332 334 356 358 349 347 302 269 228 155 84 64 49 48 44 31 19 15 5 349 342 336 336 334 333 322 312 322 322 347
133 127 114 69 13 347 316 295 287 279 259 245 250 253 258 277 317 345 339 341 334 351 360 344 322 303 291 275 258 253 303 14 22 24 20 16 9 2 350 328 332 340 336 317 301 280 282 343 338
123 118 90 62 25 349 330 296 281 252 257 261 255 255 263 273 299 318 332 342 318 328 329 290 284 281 290 302 300 263 257 259 302 344 7 10 3 348 343 326 317 322 299 301 308 311 276 305 310
103 138 123 52 337 55 313 266 228 222 260 273 264 257 261 264 274 290 304 305 296 297 292 284 292 295 289 275 244 182 229 234 239 300 332 353 350 348 341 316 311 328 311 291 287 279 269 277 274
128 137 145 154 194 42 351 280 250 246 269 266 263 260 258 256 262 278 295 300 295 290 283 279 286 291 279 251 221 223 236 246 254 284 305 334 344 344 335 312 307 320 315 305 293 290 277 270 267
109 136 142 145 127 142 352 263 272 261 267 264 253 255 262 260 257 260 267 274 283 288 288 275 266 264 262 244 235 227 244 252 242 243 279 295 310 316 325 325 319 329 334 321 308 301 294 284 282
137 129 109 122 190 239 232 251 264 220 244 265 259 257 264 269 267 269 275 279 281 295 289 280 258 259 258 241 235 230 236 237 230 232 246 262 277 288 320 331 332 334 336 330 319 307 299 292 289
106 160 129 157 228 242 137 245 253 250 244 252 266 264 260 258 264 266 268 268 270 276 280 274 258 256 258 249 241 239 242 240 232 236 240 244 253 275 305 313 310 319 327 324 318 316 316 303 291
75 340 121 231 246 278 210 243 256 279 277 265 269 274 270 256 251 253 255 257 259 259 260 258 252 250 250 250 248 244 242 240 242 242 253 250 255 272 302 292 296 304 300 294 300 305 311 321 316
115 93 29 100 86 269 252 268 281 250 261 256 263 268 270 263 253 253 258 259 261 259 255 252 250 251 250 253 253 251 248 247 249 243 245 257 266 271 281 277 285 292 289 284 289 296 309 319 311
43 128 154 156 214 273 276 257 244 231 245 248 255 264 274 272 263 257 259 263 266 263 259 254 251 253 255 251 243 242 246 247 249 246 244 251 259 252 242 253 256 271 283 278 279 296 302 297 296
140 141 132 117 272 252 282 267 209 224 241 254 260 267 270 267 263 258 261 265 264 260 253 249 250 252 252 247 240 232 238 246 246 243 246 242 236 234 237 237 242 252 266 280 277 277 280 281 288
254 208 183 200 205 223 261 271 159 229 254 260 267 269 270 267 265 265 264 267 262 256 249 245 243 243 246 243 237 233 238 241 241 240 241 238 233 228 235 234 236 247 260 264 258 263 270 274 279